Flag Weather past 2 weeks in Blantyre, Malawi

Now
64 °F

Passing clouds.


Feels Like: 64 °F
Forecast: 65 / 89 °F
Wind: 10 mph from Southeast

Location: Lichinga Airport

Current Time: Nov 27, 2014 at 4:54:06 AM

Latest Report: Nov 27, 2014 at 4:00 AM


Visibility: N/A

Pressure: 30.07 "Hg

Humidity: 88%

Dew point: 61 °F

Location of BlantyreLocation

Historic Weather in Blantyre — Graph

°F

Blantyre temperature yesterday

Maximum temperature yesterday: 79 °F (at 1:00 PM)
Minimum temperature yesterday: 66 °F (at 5:00 AM)
Average temperature yesterday: 73 °F

Past Weeks' High & Low Weather Summary

 TemperatureHumidityPressure
High82 °F (Nov 12, 1:00 PM)100% (Nov 18, 6:00 PM)30.24 "Hg (Nov 18, 6:00 PM)
Low59 °F (Nov 19, 8:00 AM)40% (Nov 12, 1:00 PM)30.07 "Hg (Nov 12, 2:00 PM)
Average70 °F73%30.13 "Hg
* Reported Nov 12 3:00 AM — Nov 27 3:00 AM, Blantyre, Weather by CustomWeather, © 2014

Note: Actual official high and low records may vary slightly from our data, if they occured in-between our weather recording intervals... More about our weather records

Advertising

Blantyre weather history for previous 24 hours

 ConditionsComfort  
Time TempWeatherWind HumidityBarometerVisibility
3:00 AM
Nov 27
64 °FPassing clouds.6 mph88%30.07 "HgN/A
2:00 AM64 °FPassing clouds.7 mph94%30.07 "HgN/A
1:00 AM66 °FPassing clouds.6 mph94%30.07 "HgN/A
12:00 AM66 °FClear.3 mph88%30.09 "Hg10 mi
11:00 PM
Nov 26
66 °FClear.6 mph88%30.09 "Hg10 mi
10:00 PM68 °FPassing clouds.6 mph83%30.09 "HgN/A
9:00 PM68 °FPassing clouds.8 mph83%30.09 "HgN/A
8:00 PM70 °FPassing clouds.7 mph78%30.07 "HgN/A
7:00 PM70 °FPassing clouds.7 mph78%30.07 "HgN/A
6:00 PM73 °FPassing clouds.9 mph69%30.07 "HgN/A
5:00 PM75 °FScattered clouds.13 mph57%30.07 "HgN/A
4:00 PM79 °FPartly sunny.14 mph54%30.07 "HgN/A
3:00 PM79 °FBroken clouds.13 mph54%30.07 "HgN/A
2:00 PM79 °FBroken clouds.9 mph54%30.07 "HgN/A
1:00 PM79 °FPartly sunny.13 mph54%30.09 "HgN/A
12:00 PM77 °FPartly sunny.10 mph57%30.12 "HgN/A
11:00 AM77 °FPartly sunny.15 mph57%30.15 "HgN/A
10:00 AM75 °FPartly sunny.12 mph65%30.15 "HgN/A
9:00 AM72 °FPartly sunny.15 mph69%30.15 "HgN/A
7:00 AM70 °FPassing clouds.18 mph69%30.15 "HgN/A
6:00 AM68 °FPassing clouds.20 mph78%30.15 "HgN/A
5:00 AM66 °FPassing clouds.13 mph73%30.09 "HgN/A
Weather by CustomWeather, © 2014

See weather overviewHow to use our weather pages